{"data":{"norad_id":45026,"epoch":"2026-05-25T04:08:07.507968Z","epoch_age_seconds":63404,"freshness":"FRESH","line1":"1 45026U 20005A   26145.17230912 -.00000167  00000+0  00000+0 0  9990","line2":"2 45026   0.0056 123.8638 0003324 308.7873 315.1639  1.00272023 23278","mean_motion":1.00272023,"eccentricity":0.0003324,"inclination_deg":0.0056,"raan_deg":123.8638,"arg_perigee_deg":308.7873,"mean_anomaly_deg":315.1639,"bstar":0,"rev_number":2327,"period_min":1436.093495391,"perigee_km":35772.512706557,"apogee_km":35800.543776009,"semimajor_km":42164.665241283,"source":"CELESTRAK","updated_at":"2026-05-25T13:38:14.092191Z"}}